EN

Hourly Weather Dziegielewo

Today, 22 October, Thursday

Time Temperature Precipitation Wind Pressure Humidity
00:00 +10°C° 0 mm 4 mps 748 mmHg 79%
01:00 +9°C° 0 mm 5 mps 748 mmHg 79%
02:00 +9°C° 0 mm 5 mps 748 mmHg 77%
03:00 +9°C° 0 mm 5 mps 748 mmHg 76%
04:00 +10°C° 0 mm 5 mps 747 mmHg 74%
05:00 +10°C° 0 mm 5 mps 748 mmHg 73%
06:00 +10°C° 0 mm 6 mps 748 mmHg 72%
07:00 +11°C° 0 mm 6 mps 748 mmHg 71%
08:00 +12°C° 0 mm 7 mps 749 mmHg 68%
09:00 +15°C° 0 mm 7 mps 749 mmHg 65%
10:00 +16°C° 0 mm 8 mps 749 mmHg 62%
11:00 +17°C° 0 mm 7 mps 749 mmHg 62%
12:00 +17°C° 0 mm 7 mps 750 mmHg 62%
13:00 +19°C° 0 mm 6 mps 750 mmHg 62%
14:00 +17°C° 0 mm 5 mps 750 mmHg 66%
15:00 +17°C° 0 mm 4 mps 750 mmHg 70%
16:00 +16°C° 0 mm 3 mps 750 mmHg 74%
17:00 +16°C° 0 mm 3 mps 750 mmHg 77%
18:00 +14°C° 0 mm 3 mps 750 mmHg 79%
19:00 +13°C° 0 mm 3 mps 750 mmHg 82%
20:00 +13°C° 0 mm 3 mps 750 mmHg 83%
21:00 +13°C° 0 mm 3 mps 750 mmHg 84%
22:00 +13°C° 0 mm 3 mps 750 mmHg 85%
23:00 +13°C° 0 mm 3 mps 750 mmHg 85%

Tomorrow, 23 October, Friday

Time Temperature Precipitation Wind Pressure Humidity
00:00 +13°C° 0 mm 3 mps 749 mmHg 84%
01:00 +13°C° 0 mm 4 mps 749 mmHg 84%
02:00 +13°C° 0 mm 4 mps 749 mmHg 83%
03:00 +13°C° 0 mm 4 mps 749 mmHg 81%
04:00 +13°C° 0 mm 4 mps 748 mmHg 80%
05:00 +13°C° 0 mm 4 mps 748 mmHg 81%
06:00 +13°C° 0 mm 4 mps 748 mmHg 81%
07:00 +13°C° 0 mm 4 mps 748 mmHg 82%
08:00 +13°C° 0 mm 4 mps 748 mmHg 82%
09:00 +13°C° 0 mm 4 mps 748 mmHg 81%
10:00 +14°C° 0 mm 4 mps 748 mmHg 81%
11:00 +14°C° 0 mm 4 mps 748 mmHg 79%
12:00 +15°C° 0 mm 4 mps 748 mmHg 77%
13:00 +17°C° 0 mm 4 mps 747 mmHg 76%
14:00 +16°C° 0 mm 3 mps 747 mmHg 79%
15:00 +16°C° 0 mm 3 mps 747 mmHg 83%
16:00 +15°C° 0 mm 2 mps 747 mmHg 87%
17:00 +15°C° 0 mm 2 mps 747 mmHg 90%
18:00 +14°C° 0 mm 2 mps 747 mmHg 92%
19:00 +14°C° 0 mm 2 mps 747 mmHg 94%
20:00 +14°C° 0.3 mm 2 mps 747 mmHg 95%
21:00 +14°C° 0.3 mm 2 mps 747 mmHg 96%
22:00 +13°C° 0.3 mm 1 mps 747 mmHg 97%
23:00 +13°C° 0.7 mm 1 mps 747 mmHg 97%

Day after tomorrow, 24 October, Saturday

Time Temperature Precipitation Wind Pressure Humidity
00:00 +13°C° 0.7 mm 1 mps 747 mmHg 97%
01:00 +13°C° 0.7 mm 1 mps 747 mmHg 98%
02:00 +13°C° 0.5 mm 1 mps 747 mmHg 98%
03:00 +13°C° 0.5 mm 1 mps 747 mmHg 98%
04:00 +13°C° 0.5 mm 1 mps 747 mmHg 98%
05:00 +13°C° 0.3 mm 2 mps 747 mmHg 96%
06:00 +12°C° 0.3 mm 3 mps 747 mmHg 95%
07:00 +13°C° 0.3 mm 3 mps 747 mmHg 94%
08:00 +13°C° 0.6 mm 4 mps 747 mmHg 91%
09:00 +13°C° 0.6 mm 5 mps 747 mmHg 88%
10:00 +14°C° 0.6 mm 5 mps 747 mmHg 85%
11:00 +14°C° 0.6 mm 6 mps 747 mmHg 81%
12:00 +15°C° 0.6 mm 6 mps 747 mmHg 76%
13:00 +15°C° 0.6 mm 6 mps 748 mmHg 72%
14:00 +14°C° 0.2 mm 6 mps 748 mmHg 73%
15:00 +14°C° 0.2 mm 6 mps 748 mmHg 75%
16:00 +13°C° 0.2 mm 6 mps 749 mmHg 76%
17:00 +11°C° 0 mm 6 mps 749 mmHg 77%
18:00 +10°C° 0 mm 5 mps 750 mmHg 78%
19:00 +10°C° 0 mm 4 mps 750 mmHg 80%
20:00 +10°C° 0 mm 4 mps 751 mmHg 81%
21:00 +8°C° 0 mm 4 mps 751 mmHg 83%
22:00 +9°C° 0 mm 3 mps 751 mmHg 85%
23:00 +8°C° 0 mm 3 mps 752 mmHg 87%

25 October, Sunday

Time Temperature Precipitation Wind Pressure Humidity
00:00 +8°C° 0 mm 3 mps 752 mmHg 89%
01:00 +7°C° 0 mm 3 mps 752 mmHg 91%
02:00 +7°C° 0 mm 2 mps 752 mmHg 91%
03:00 +7°C° 0 mm 2 mps 752 mmHg 91%
04:00 +6°C° 0 mm 2 mps 752 mmHg 91%
05:00 +6°C° 0 mm 2 mps 752 mmHg 91%
06:00 +6°C° 0 mm 2 mps 752 mmHg 91%
07:00 +6°C° 0 mm 2 mps 752 mmHg 90%
08:00 +7°C° 0 mm 2 mps 752 mmHg 84%
09:00 +9°C° 0 mm 2 mps 753 mmHg 77%
10:00 +10°C° 0 mm 3 mps 753 mmHg 71%
11:00 +11°C° 0 mm 3 mps 752 mmHg 68%
12:00 +12°C° 0 mm 3 mps 752 mmHg 66%
13:00 +13°C° 0 mm 3 mps 752 mmHg 63%
14:00 +13°C° 0 mm 3 mps 752 mmHg 67%
15:00 +12°C° 0 mm 3 mps 751 mmHg 70%
16:00 +12°C° 0 mm 2 mps 751 mmHg 74%
17:00 +11°C° 0 mm 3 mps 751 mmHg 76%
18:00 +10°C° 0 mm 3 mps 751 mmHg 78%
19:00 +8°C° 0 mm 4 mps 751 mmHg 81%
20:00 +8°C° 0 mm 4 mps 751 mmHg 81%
21:00 +8°C° 0 mm 4 mps 751 mmHg 82%
22:00 +8°C° 0 mm 3 mps 751 mmHg 83%
23:00 +8°C° 0 mm 3 mps 751 mmHg 84%

26 October, Monday

Time Temperature Precipitation Wind Pressure Humidity
00:00 +8°C° 0 mm 3 mps 751 mmHg 84%
01:00 +8°C° 0 mm 3 mps 751 mmHg 85%
02:00 +7°C° 0 mm 3 mps 751 mmHg 85%
03:00 +6°C° 0 mm 4 mps 751 mmHg 85%
04:00 +6°C° 0 mm 4 mps 751 mmHg 85%
05:00 +6°C° 0 mm 4 mps 751 mmHg 85%
06:00 +5°C° 0 mm 4 mps 751 mmHg 86%
07:00 +5°C° 0 mm 4 mps 751 mmHg 87%
08:00 +7°C° 0 mm 4 mps 751 mmHg 83%
09:00 +8°C° 0 mm 4 mps 750 mmHg 80%
10:00 +10°C° 0 mm 4 mps 750 mmHg 76%
11:00 +10°C° 0 mm 5 mps 750 mmHg 73%
12:00 +12°C° 0 mm 5 mps 750 mmHg 71%
13:00 +13°C° 0 mm 5 mps 750 mmHg 68%
14:00 +13°C° 0 mm 5 mps 749 mmHg 71%
15:00 +12°C° 0 mm 4 mps 749 mmHg 74%
16:00 +12°C° 0 mm 4 mps 749 mmHg 77%
17:00 +11°C° 0 mm 4 mps 749 mmHg 80%
18:00 +11°C° 0 mm 4 mps 749 mmHg 83%
19:00 +10°C° 0 mm 4 mps 749 mmHg 85%
20:00 +10°C° 0 mm 4 mps 750 mmHg 87%
21:00 +10°C° 0 mm 4 mps 750 mmHg 89%
22:00 +8°C° 0 mm 4 mps 750 mmHg 91%
23:00 +9°C° 0 mm 3 mps 750 mmHg 92%

27 October, Tuesday

Time Temperature Precipitation Wind Pressure Humidity
00:00 +8°C° 0 mm 3 mps 750 mmHg 93%
01:00 +8°C° 0 mm 3 mps 750 mmHg 94%
02:00 +8°C° 0 mm 3 mps 750 mmHg 94%
03:00 +8°C° 0 mm 3 mps 750 mmHg 94%
04:00 +7°C° 0 mm 3 mps 750 mmHg 94%
05:00 +7°C° 0 mm 3 mps 750 mmHg 95%
06:00 +7°C° 0 mm 3 mps 750 mmHg 95%
07:00 +7°C° 0 mm 3 mps 750 mmHg 95%
08:00 +8°C° 0 mm 3 mps 750 mmHg 90%
09:00 +9°C° 0 mm 3 mps 750 mmHg 85%
10:00 +10°C° 0 mm 3 mps 750 mmHg 80%
11:00 +11°C° 0 mm 3 mps 750 mmHg 77%
12:00 +12°C° 0 mm 3 mps 751 mmHg 74%
13:00 +14°C° 0 mm 2 mps 751 mmHg 71%
14:00 +13°C° 0 mm 2 mps 751 mmHg 74%
15:00 +13°C° 0 mm 2 mps 751 mmHg 78%
16:00 +12°C° 0 mm 1 mps 751 mmHg 81%
17:00 +12°C° 0 mm 1 mps 751 mmHg 83%
18:00 +11°C° 0 mm 1 mps 751 mmHg 86%
19:00 +11°C° 0 mm 1 mps 751 mmHg 88%
20:00 +11°C° 0 mm 1 mps 752 mmHg 88%
21:00 +10°C° 0 mm 1 mps 752 mmHg 89%
22:00 +10°C° 0 mm 1 mps 752 mmHg 90%
23:00 +10°C° 0 mm 1 mps 752 mmHg 90%
Show more